Weather History for Visalia, CA

Change the Weather History Date:

Thursday, August 23, 2012

  Actual Average Record
Temperature  
Mean Temperature 78 °F -  
Max Temperature 96 °F 92 °F 106 °F (1932)
Min Temperature 60 °F 61 °F 49 °F (1960)
Cooling Degree Days 13    
Growing Degree Days 28 (Base 50)    
Moisture  
Dew Point 56 °F    
Average Humidity 50    
Maximum Humidity 83    
Minimum Humidity 20    
Precipitation  
Precipitation 0.00 in - - ()
Sea Level Pressure  
Sea Level Pressure 29.85 in    
Wind  
Wind Speed 4 mph (WNW)    
Max Wind Speed 8 mph    
Max Gust Speed -    
Visibility 10 miles    
Events      
Averages and records for this station are not official NWS values.
T = Trace of Precipitation, MM = Missing Value Source: NWS Daily Summary

Daily Weather History Graph

Daily Weather History Graph

Search for Another Location

Airport:

Trip Planner

Search our weather history database for the weather conditions in past years. The results will help you decide how hot, cold, wet, or windy it might be!

Date:

Astronomy

Aug. 23, 2012 Rise Set
Actual Time 6:22 AM PDT 7:37 PM PDT
Civil Twilight 5:55 AM PDT 8:03 PM PDT
Nautical Twilight 5:23 AM PDT 8:35 PM PDT
Astronomical Twilight 4:50 AM PDT 9:08 PM PDT
Moon 1:01 PM PDT (8/23) 11:24 PM PDT (8/23)
Length of Visible Light 14h 08m
Length of Day
13h 14m
Waxing Crescent, 41% of the Moon is Illuminated
Aug 23
Waxing Crescent
Aug 24
First Quarter
Aug 31
Full
Sep 8
Last Quarter
Sep 15
New

Hourly Weather History & Observations

Time (PDT) Temp. Heat Index Dew Point Humidity Pressure Visibility Wind Dir Wind Speed Gust Speed Precip Events Conditions
12:15 AM 73.4 °F - 55.4 °F 53% 29.86 in 10.0 mi NW 5.8 mph - N/A   Clear
12:35 AM 73.4 °F - 55.4 °F 53% 29.86 in 10.0 mi NNW 4.6 mph - N/A   Clear
12:55 AM 73.4 °F - 57.2 °F 57% 29.86 in 10.0 mi NNW 6.9 mph - N/A   Clear
1:15 AM 71.6 °F - 57.2 °F 60% 29.87 in 10.0 mi WNW 5.8 mph - N/A   Clear
1:35 AM 69.8 °F - 57.2 °F 64% 29.86 in 10.0 mi WNW 3.5 mph - N/A   Clear
1:55 AM 68.0 °F - 57.2 °F 68% 29.86 in 10.0 mi Calm Calm - N/A   Clear
2:15 AM 66.2 °F - 57.2 °F 73% 29.86 in 10.0 mi Calm Calm - N/A   Clear
2:35 AM 64.4 °F - 57.2 °F 77% 29.86 in 10.0 mi South 3.5 mph - N/A   Clear
2:55 AM 64.4 °F - 57.2 °F 77% 29.86 in 10.0 mi Calm Calm - N/A   Clear
3:15 AM 64.4 °F - 57.2 °F 77% 29.86 in 10.0 mi Calm Calm - N/A   Clear
3:35 AM 64.4 °F - 57.2 °F 77% 29.86 in 10.0 mi ESE 3.5 mph - N/A   Clear
3:55 AM 64.4 °F - 57.2 °F 77% 29.87 in 10.0 mi Calm Calm - N/A   Clear
4:15 AM 62.6 °F - 57.2 °F 82% 29.87 in 10.0 mi South 5.8 mph - N/A   Clear
4:35 AM 64.4 °F - 57.2 °F 77% 29.87 in 10.0 mi SSW 4.6 mph - N/A   Clear
4:55 AM 62.6 °F - 57.2 °F 82% 29.87 in 10.0 mi Calm Calm - N/A   Clear
5:15 AM 62.6 °F - 55.4 °F 77% 29.87 in 10.0 mi Calm Calm - N/A   Clear
5:35 AM 62.6 °F - 55.4 °F 77% 29.88 in 10.0 mi Calm Calm - N/A   Clear
5:55 AM 62.6 °F - 55.4 °F 77% 29.88 in 10.0 mi SSE 3.5 mph - N/A   Clear
6:15 AM 60.8 °F - 55.4 °F 82% 29.88 in 10.0 mi SE 3.5 mph - N/A   Clear
6:35 AM 62.6 °F - 57.2 °F 82% 29.89 in 10.0 mi Calm Calm - N/A   Clear
6:55 AM 62.6 °F - 57.2 °F 82% 29.90 in 10.0 mi ESE 3.5 mph - N/A   Clear
7:15 AM 62.6 °F - 57.2 °F 82% 29.91 in 10.0 mi SSE 5.8 mph - N/A   Clear
7:35 AM 64.4 °F - 59.0 °F 83% 29.91 in 10.0 mi Calm Calm - N/A   Clear
7:55 AM 66.2 °F - 59.0 °F 78% 29.91 in 10.0 mi Calm Calm - N/A   Clear
8:15 AM 69.8 °F - 59.0 °F 68% 29.92 in 10.0 mi South 3.5 mph - N/A   Clear
8:35 AM 69.8 °F - 57.2 °F 64% 29.92 in 10.0 mi SSW 3.5 mph - N/A   Clear
8:55 AM 71.6 °F - 59.0 °F 64% 29.92 in 10.0 mi SSW 3.5 mph - N/A   Clear
9:15 AM 73.4 °F - 59.0 °F 61% 29.92 in 10.0 mi Calm Calm - N/A   Clear
9:35 AM 75.2 °F - 60.8 °F 61% 29.92 in 10.0 mi Calm Calm - N/A   Clear
9:55 AM 75.2 °F - 59.0 °F 57% 29.92 in 10.0 mi South 4.6 mph - N/A   Clear
10:15 AM 78.8 °F - 60.8 °F 54% 29.92 in 10.0 mi SSW 4.6 mph - N/A   Clear
10:35 AM 80.6 °F 81.5 °F 60.8 °F 51% 29.92 in 10.0 mi SSW 4.6 mph - N/A   Clear
10:55 AM 80.6 °F 81.5 °F 60.8 °F 51% 29.91 in 10.0 mi Calm Calm - N/A   Clear
11:15 AM 84.2 °F 84.4 °F 60.8 °F 45% 29.91 in 10.0 mi West 3.5 mph - N/A   Clear
11:35 AM 86.0 °F 85.4 °F 59.0 °F 40% 29.91 in 10.0 mi West 5.8 mph - N/A   Clear
11:55 AM 87.8 °F 86.1 °F 55.4 °F 33% 29.90 in 10.0 mi West 5.8 mph - N/A   Clear
12:15 PM 89.6 °F 87.3 °F 53.6 °F 29% 29.89 in 10.0 mi West 5.8 mph - N/A   Clear
12:35 PM 89.6 °F - 51.8 °F 27% 29.89 in 10.0 mi WSW 4.6 mph - N/A   Clear
12:55 PM 89.6 °F - 50.0 °F 26% 29.88 in 10.0 mi West 4.6 mph - N/A   Clear
1:15 PM 91.4 °F 89.1 °F 53.6 °F 28% 29.87 in 2.5 mi West 5.8 mph - N/A   Clear
1:35 PM 91.4 °F 89.1 °F 53.6 °F 28% 29.86 in 10.0 mi West 4.6 mph - N/A   Clear
1:55 PM 93.2 °F 90.8 °F 53.6 °F 26% 29.86 in 10.0 mi NNW 4.6 mph - N/A   Clear
2:15 PM 93.2 °F - 51.8 °F 24% 29.85 in 10.0 mi WNW 4.6 mph - N/A   Clear
2:35 PM 95.0 °F - 50.0 °F 22% 29.84 in 10.0 mi WNW 5.8 mph - N/A   Clear
2:55 PM 95.0 °F - 48.2 °F 20% 29.83 in 10.0 mi WSW 6.9 mph - N/A   Clear
3:15 PM 95.0 °F - 51.8 °F 23% 29.83 in 10.0 mi NW 4.6 mph - N/A   Clear
3:35 PM 96.8 °F - 51.8 °F 22% 29.82 in 10.0 mi NW 4.6 mph - N/A   Clear
3:55 PM 96.8 °F 94.4 °F 53.6 °F 23% 29.82 in 10.0 mi NW 5.8 mph - N/A   Clear
4:15 PM 96.8 °F 94.4 °F 53.6 °F 23% 29.81 in 10.0 mi WNW 8.1 mph - N/A   Clear
4:35 PM 96.8 °F - 51.8 °F 22% 29.80 in 10.0 mi WNW 6.9 mph - N/A   Clear
4:55 PM 96.8 °F - 51.8 °F 22% 29.80 in 10.0 mi West 6.9 mph - N/A   Clear
5:15 PM 96.8 °F - 51.8 °F 22% 29.80 in 10.0 mi WNW 8.1 mph - N/A   Clear
5:35 PM 96.8 °F - 51.8 °F 22% 29.79 in 10.0 mi WNW 8.1 mph - N/A   Clear
5:55 PM 95.0 °F - 51.8 °F 23% 29.78 in 10.0 mi West 5.8 mph - N/A   Clear
6:15 PM 95.0 °F 92.7 °F 53.6 °F 25% 29.78 in 10.0 mi WNW 6.9 mph - N/A   Clear
6:55 PM 93.2 °F 91.3 °F 55.4 °F 28% 29.77 in 10.0 mi NW 6.9 mph - N/A   Clear
7:15 PM 93.2 °F - 51.8 °F 24% 29.78 in 10.0 mi NNW 5.8 mph - N/A   Clear
7:35 PM 91.4 °F - 51.8 °F 26% 29.78 in 10.0 mi NNW 3.5 mph - N/A   Clear
7:55 PM 87.8 °F 85.7 °F 53.6 °F 31% 29.78 in 10.0 mi Calm Calm - N/A   Clear
8:15 PM 84.2 °F 83.5 °F 57.2 °F 40% 29.79 in 10.0 mi WNW 4.6 mph - N/A   Clear
8:35 PM 82.4 °F 82.9 °F 60.8 °F 48% 29.79 in 10.0 mi WNW 5.8 mph - N/A   Clear
8:55 PM 80.6 °F 81.5 °F 60.8 °F 51% 29.80 in 10.0 mi WNW 4.6 mph - N/A   Clear
9:15 PM 80.6 °F 81.1 °F 59.0 °F 48% 29.80 in 10.0 mi NW 5.8 mph - N/A   Clear
9:35 PM 80.6 °F 80.8 °F 57.2 °F 45% 29.81 in 10.0 mi NW 5.8 mph - N/A   Clear
9:55 PM 80.6 °F 80.8 °F 57.2 °F 45% 29.82 in 10.0 mi NW 4.6 mph - N/A   Clear
10:15 PM 78.8 °F - 57.2 °F 47% 29.82 in 10.0 mi NW 4.6 mph - N/A   Clear
10:35 PM 78.8 °F - 55.4 °F 44% 29.83 in 10.0 mi NW 5.8 mph - N/A   Clear
10:55 PM 78.8 °F - 55.4 °F 44% 29.84 in 10.0 mi NNW 6.9 mph - N/A   Clear
11:15 PM 78.8 °F - 55.4 °F 44% 29.84 in 10.0 mi NW 8.1 mph - N/A   Clear
11:35 PM 78.8 °F - 55.4 °F 44% 29.84 in 10.0 mi NNW 6.9 mph - N/A   Clear
11:55 PM 77.0 °F - 55.4 °F 47% 29.84 in 10.0 mi NNW 5.8 mph - N/A   Clear